| time (UTC) | temp F | wind direction | speed MPH | gust MPH | rain 1hr in | rain 24hr in | rain mn in | humidity % | barometer mb |
| 20260504070128 | 46 | 302 | 0.0 | 4.0 | 0.00 | 0.00 | 0.00 | 100 | |
| 20260504060125 | 43 | 85 | 0.0 | 0.0 | 0.00 | 0.00 | 0.00 | 100 | |
| 20260504050121 | 40 | 85 | 0.0 | 0.0 | 0.00 | 0.00 | 0.00 | 100 | |
| 20260504044120 | 38 | 85 | 0.0 | 0.0 | 0.00 | 0.00 | 0.00 | 100 | |
| 20260504042119 | 37 | 189 | 0.0 | 0.0 | 0.00 | 0.00 | 0.00 | 100 | |
| 20260504040118 | 38 | 189 | 0.0 | 0.0 | 0.00 | 0.00 | 0.00 | 100 | |
| 20260504034117 | 38 | 189 | 0.0 | 0.0 | 0.00 | 0.00 | 0.00 | 100 | |
| 20260504032115 | 40 | 189 | 0.0 | 0.0 | 0.00 | 0.00 | 0.00 | 100 | |
| 20260504030114 | 41 | 189 | 0.0 | 5.0 | 0.00 | 0.00 | 0.00 | 100 | |
| 20260504024113 | 41 | 268 | 0.0 | 2.0 | 0.00 | 0.00 | 0.00 | 100 | |
| 20260504022112 | 41 | 261 | 2.0 | 4.0 | 0.00 | 0.00 | 0.00 | 100 | |
| 20260504020111 | 41 | 284 | 0.0 | 5.0 | 0.00 | 0.00 | 0.00 | 100 | |
| 20260504014110 | 41 | 296 | 2.0 | 6.0 | 0.00 | 0.00 | 0.00 | 100 | |
| 20260504012109 | 39 | 52 | 0.0 | 0.0 | 0.00 | 0.00 | 0.00 | 100 | |
| 20260504010107 | 39 | 52 | 0.0 | 0.0 | 0.00 | 0.00 | 0.00 | 100 | |
| 20260504004106 | 40 | 52 | 0.0 | 0.0 | 0.00 | 0.00 | 0.00 | 100 | |
| 20260504002105 | 41 | 52 | 0.0 | 0.0 | 0.00 | 0.00 | 0.00 | 100 | |
| 20260504000104 | 43 | 52 | 0.0 | 0.0 | 0.00 | 0.00 | 0.00 | 100 | |
| 20260503234103 | 46 | 52 | 0.0 | 0.0 | 0.00 | 0.00 | 0.00 | 100 | |
| 20260503232102 | 48 | 144 | 7.0 | 12.0 | 0.00 | 0.00 | 0.00 | 100 | |
| 20260503230101 | 47 | 178 | 7.0 | 17.0 | 0.00 | 0.00 | 0.00 | 100 | |
| 20260503224059 | 46 | 168 | 5.0 | 11.0 | 0.00 | 0.00 | 0.00 | 100 | |
| 20260503222058 | 48 | 202 | 3.0 | 10.0 | 0.00 | 0.00 | 0.00 | 100 | |
| 20260503220150 | 47 | 217 | 3.0 | 9.0 | 0.00 | 0.00 | 0.00 | 100 | |
| 20260503220057 | 47 | 217 | 3.0 | 9.0 | 0.00 | 0.00 | 0.00 | 100 | |
| 20260503214056 | 45 | 199 | 0.0 | 0.0 | 0.00 | 0.00 | 0.00 | 100 | |
| 20260503212055 | 47 | 199 | 0.0 | 3.0 | 0.00 | 0.00 | 0.00 | 100 | |
| 20260503210054 | 49 | 156 | 6.0 | 11.0 | 0.00 | 0.00 | 0.00 | 100 | |
| 20260503204052 | 48 | 184 | 0.0 | 6.0 | 0.00 | 0.00 | 0.00 | 100 | |
| 20260503202051 | 49 | 223 | 0.0 | 1.0 | 0.00 | 0.00 | 0.00 | 100 | |
| 20260503200050 | 50 | 205 | 6.0 | 17.0 | 0.00 | 0.00 | 0.00 | 100 | |
| 20260503194049 | 50 | 192 | 7.0 | 16.0 | 0.00 | 0.00 | 0.00 | 100 | |
| 20260503192048 | 51 | 188 | 5.0 | 11.0 | 0.00 | 0.00 | 0.00 | 100 | |
| 20260503190047 | 51 | 203 | 8.0 | 14.0 | 0.00 | 0.00 | 0.00 | 100 | |
| 20260503184046 | 51 | 189 | 7.0 | 13.0 | 0.00 | 0.00 | 0.00 | 100 | |
| 20260503182044 | 52 | 177 | 9.0 | 13.0 | 0.00 | 0.00 | 0.00 | 100 | |
| 20260503180043 | 53 | 187 | 6.0 | 12.0 | 0.00 | 0.00 | 0.00 | 100 | |
| 20260503174042 | 55 | 184 | 6.0 | 17.0 | 0.00 | 0.00 | 0.00 | 100 | |
| 20260503172041 | 57 | 139 | 5.0 | 13.0 | 0.00 | 0.00 | 0.00 | 100 |